Temperature
3 4 4 3 3 3 3 3 3 4 5 5 5 4 5 4 4 4 3 3 2 2 2 2 1 1 2 2 2 2 2 2 2 2 2 2 2 2 2 2 2 2 1 1
2 3 3 3 3 3 3 3 3 3 3 4 5 5 4 4 3 3 3 2 2 1 1 1 1 1 1 2 2 1 1 2 2 1 1 1 1 1 1 1 1 1 1 1
2 3 3 2 3 2 2 2 3 3 3 4 3 3 3 3 3 3 2 2 1 1 1 1 1 1 1 1 1 1 1 1 1 1 1 1 1 1 1 1 1 1 1 1
2 2 2 4 3 3 3 2 2 2 3 3 3 3 3 3 3 2 2 1 1 1 1 1 0 0 0 0 0 0 1 1 0 0 0 0 0 0 0 0 0 0 0 0
1 2 2 4 3 2 2 2 2 2 2 3 3 3 3 3 3 2 2 1 1 1 0 0 0 0 0 0 -0 -0 -0 -0 -0 -0 -0 -0 -0 -0 -1 -1 -1 -1 -1 -0
1 1 2 4 3 3 2 1 2 2 2 2 2 1 1 2 2 2 1 1 0 0 0 -0 -0 -0 -0 -0 -0 -1 -1 -1 -1 -1 -1 -1 -1 -1 -1 -1 -1 -1 -1 -1
1 1 2 3 2 2 2 2 2 3 2 2 1 1 2 1 1 1 1 0 0 -0 -0 -0 -1 -1 -1 -1 -1 -1 -1 -1 -1 -1 -1 -1 -1 -1 -2 -2 -2 -2 -2 -2
0 1 1 2 1 1 2 2 2 2 2 2 1 1 1 1 1 0 0 -0 -0 -1 -1 -1 -1 -1 -1 -1 -1 -1 -1 -1 -1 -1 -2 -2 -2 -2 -2 -2 -2 -2 -2 -2
1 2 2 2 2 2 2 2 2 2 1 1 1 1 0 0 -0 -0 -0 -1 -1 -1 -1 -1 -1 -2 -2 -2 -2 -2 -2 -2 -2 -2 -2 -2 -2 -2 -2 -2 -3 -3 -3 -3
0 1 2 3 3 2 2 2 1 1 1 1 0 0 -0 -0 -1 -1 -1 -1 -1 -2 -2 -2 -2 -2 -2 -2 -2 -2 -2 -2 -2 -2 -3 -3 -3 -3 -3 -3 -3 -3 -3 -3
-1 0 1 2 2 2 2 1 1 1 0 -0 -0 -0 -1 -1 -1 -1 -2 -2 -2 -2 -2 -2 -2 -2 -2 -2 -2 -2 -3 -3 -3 -3 -3 -3 -3 -3 -3 -3 -3 -3 -3 -4
0 1 0 1 2 2 1 1 0 0 -0 -1 -1 -1 -1 -1 -2 -2 -2 -2 -2 -2 -3 -3 -2 -2 -2 -3 -3 -3 -3 -3 -3 -3 -3 -3 -3 -3 -3 -3 -3 -4 -4 -4
2 2 2 1 1 1 1 0 -0 -0 -1 -1 -1 -1 -1 -2 -2 -2 -2 -2 -3 -3 -3 -3 -3 -3 -3 -3 -3 -3 -3 -3 -3 -4 -4 -4 -4 -4 -4 -3 -4 -4 -4 -4
1 1 0 0 0 0 -0 -0 -1 -1 -1 -1 -1 -2 -2 -2 -2 -3 -3 -3 -3 -3 -3 -3 -3 -3 -3 -3 -3 -3 -3 -3 -4 -4 -4 -4 -4 -4 -4 -4 -4 -4 -4 -4
1 0 0 -0 -0 -0 -1 -1 -1 -1 -1 -2 -2 -2 -2 -2 -3 -3 -3 -3 -3 -3 -3 -3 -3 -3 -3 -3 -3 -3 -4 -4 -4 -4 -4 -4 -5 -5 -5 -5 -5 -5 -5 -5
0 -0 -0 -1 -1 -1 -1 -1 -2 -2 -2 -2 -2 -2 -2 -3 -3 -3 -3 -3 -3 -3 -3 -3 -3 -3 -3 -3 -3 -4 -4 -4 -4 -5 -5 -5 -5 -5 -5 -5 -5 -5 -5 -5
-1 -1 -1 -1 -1 -1 -2 -2 -2 -2 -2 -2 -3 -3 -3 -3 -3 -3 -3 -3 -3 -3 -3 -4 -4 -4 -4 -4 -4 -4 -4 -4 -5 -5 -5 -5 -5 -5 -6 -6 -6 -6 -6 -6
-1 -1 -1 -1 -2 -2 -2 -2 -2 -2 -3 -3 -3 -3 -3 -3 -3 -3 -3 -3 -4 -4 -4 -4 -4 -4 -4 -4 -4 -4 -4 -5 -5 -5 -5 -5 -6 -6 -6 -6 -6 -6 -6 -6
-1 -1 -1 -2 -2 -2 -2 -2 -3 -3 -3 -3 -3 -3 -3 -3 -3 -3 -4 -4 -4 -4 -4 -4 -4 -4 -4 -4 -5 -5 -5 -5 -5 -5 -5 -6 -6 -6 -6 -6 -6 -6 -6 -6
-1 -1 -1 -2 -2 -2 -2 -3 -3 -3 -3 -3 -3 -3 -3 -3 -4 -4 -4 -4 -4 -4 -4 -5 -5 -5 -5 -5 -5 -5 -5 -5 -5 -6 -6 -6 -6 -6 -6 -6 -6 -6 -7 -7
-1 -2 -2 -2 -2 -2 -2 -3 -3 -3 -3 -3 -3 -3 -4 -4 -4 -4 -4 -4 -4 -5 -5 -5 -5 -5 -5 -5 -5 -5 -6 -6 -6 -6 -6 -6 -6 -6 -6 -6 -6 -7 -7 -7
-2 -2 -2 -2 -2 -2 -3 -3 -3 -3 -4 -4 -4 -4 -4 -4 -4 -4 -4 -4 -5 -5 -5 -5 -5 -6 -6 -6 -6 -6 -6 -6 -6 -6 -6 -7 -7 -7 -7 -7 -7 -7 -7 -7
-2 -2 -2 -2 -2 -3 -3 -3 -3 -4 -4 -4 -4 -4 -4 -4 -4 -5 -5 -5 -5 -5 -5 -5 -6 -6 -6 -6 -6 -6 -6 -7 -7 -7 -7 -7 -7 -7 -7 -7 -7 -7 -7 -7
-2 -2 -2 -3 -3 -3 -3 -3 -4 -4 -4 -4 -4 -4 -5 -5 -5 -5 -5 -5 -5 -5 -5 -6 -6 -6 -6 -6 -7 -7 -7 -7 -7 -7 -7 -7 -7 -7 -7 -7 -7 -7 -7 -7
-2 -2 -3 -3 -3 -3 -3 -4 -4 -4 -4 -5 -5 -5 -5 -5 -5 -5 -5 -5 -6 -6 -6 -6 -6 -6 -7 -7 -7 -7 -7 -7 -7 -7 -7 -8 -8 -8 -8 -8 -8 -8 -8 -8
-3 -3 -3 -3 -3 -4 -4 -4 -4 -4 -5 -5 -5 -5 -5 -5 -5 -5 -5 -6 -6 -6 -6 -6 -6 -7 -7 -7 -7 -7 -8 -8 -8 -8 -8 -8 -8 -8 -8 -8 -8 -8 -8 -8
-3 -3 -3 -4 -4 -4 -4 -4 -5 -5 -5 -5 -5 -5 -5 -5 -5 -6 -6 -6 -6 -6 -6 -7 -7 -7 -7 -8 -8 -8 -8 -8 -8 -8 -8 -8 -8 -8 -8 -8 -8 -8 -8 -8
Wind_Speed
6 7 6 7 8 8 8 8 8 9 9 9 5 3 2 1 2 1 1 1 1 2 3 3 3 3 3 2 2 2 2 2 3 2 2 2 3 3 3 3 3 3 3 3
6 7 7 9 10 10 10 10 11 11 12 6 3 2 1 2 2 2 2 2 2 3 3 3 3 3 4 3 3 3 3 3 3 2 3 3 3 3 3 3 3 3 3 4
4 4 6 8 10 10 8 8 8 10 8 4 3 3 3 3 3 3 3 3 3 3 3 3 3 3 4 3 3 3 3 3 3 3 3 3 4 4 4 4 3 4 4 4
3 3 7 6 2 5 7 8 9 7 5 5 5 4 4 4 3 3 3 3 3 3 3 3 3 3 4 3 3 3 3 3 3 3 4 4 4 4 4 3 4 4 4 4
2 4 8 4 3 4 5 7 7 7 6 5 4 4 4 2 2 3 3 3 3 3 3 3 3 3 3 3 3 3 3 3 3 4 4 4 4 4 4 4 4 4 4 4
3 4 6 4 2 2 2 5 4 5 5 3 2 3 4 1 2 2 3 3 2 2 3 3 3 2 3 3 3 3 3 4 4 4 4 5 5 5 4 4 4 4 4 4
6 6 7 3 3 4 3 5 1 2 3 3 4 5 4 3 3 3 3 3 2 2 3 3 2 2 3 3 4 3 3 4 5 5 5 5 5 4 4 4 3 4 5 5
5 6 8 4 5 5 5 1 1 2 2 3 4 4 4 4 4 4 4 3 3 3 3 3 2 2 3 4 3 3 4 5 5 5 5 4 4 4 4 3 3 4 4 4
7 8 3 5 5 3 1 1 2 2 3 3 4 5 5 4 4 4 4 3 3 3 3 3 3 3 4 4 3 3 4 5 5 5 5 4 4 4 3 3 3 4 4 4
5 7 5 6 5 4 3 4 3 3 3 3 5 5 5 5 4 4 4 3 3 3 4 4 3 3 4 3 3 4 5 5 5 4 5 4 3 3 3 4 4 4 4 4
7 6 5 5 6 5 4 3 3 3 3 4 5 5 5 5 5 4 4 3 3 4 5 5 4 4 4 3 3 4 5 5 5 4 4 4 4 4 4 5 5 5 4 4
8 5 5 6 5 4 4 5 5 4 4 4 4 5 5 5 5 4 4 4 4 5 5 5 4 4 4 3 3 4 4 4 4 3 3 3 4 4 6 7 9 9 8 7
7 3 4 4 3 3 4 4 4 4 5 5 4 4 5 5 4 4 4 5 5 5 5 5 4 5 4 3 3 4 4 4 4 3 3 3 3 4 4 5 7 7 8 8
6 4 5 5 4 4 3 3 3 3 4 4 4 4 4 5 4 5 5 5 5 5 5 4 4 5 4 3 3 4 4 5 4 3 3 3 3 4 4 4 4 3 5 7
5 5 6 4 3 3 2 2 3 4 4 4 4 4 4 5 5 5 5 4 4 4 4 4 4 5 3 2 3 4 4 3 3 3 3 3 3 3 3 4 4 4 3 4
4 4 5 5 5 4 3 4 5 5 5 5 4 5 5 5 5 5 4 3 3 4 4 4 5 4 2 2 2 3 3 5 4 3 3 3 3 3 3 3 4 4 4 3
4 5 5 5 5 5 5 5 5 5 5 5 5 4 4 4 4 4 4 4 4 4 4 4 4 3 2 2 2 2 2 3 4 3 2 3 3 3 3 3 4 4 4 5
7 6 5 5 5 5 5 5 4 4 5 5 4 3 4 4 5 5 4 3 3 4 4 3 3 2 2 2 2 2 2 2 2 2 2 3 3 3 3 4 4 4 4 4
4 4 4 4 4 4 4 4 4 4 3 3 3 4 4 4 4 4 3 2 3 4 4 2 3 2 2 3 2 2 2 2 2 2 2 4 4 3 3 3 4 4 3 3
2 2 3 3 3 3 3 3 2 2 2 2 2 3 3 4 3 3 3 3 4 4 3 2 2 2 2 2 2 2 2 2 2 2 2 2 3 3 3 3 3 3 3 3
3 3 3 3 3 2 2 2 2 2 2 2 3 3 4 3 2 2 2 3 3 2 2 3 2 2 2 2 3 1 2 2 2 2 2 2 2 3 3 3 3 3 3 3
3 3 3 3 2 2 2 1 2 2 1 2 2 2 2 3 3 3 3 4 3 3 2 2 2 3 3 3 1 1 2 2 2 2 2 2 2 2 2 3 3 3 3 3
3 3 3 3 2 2 1 1 2 2 2 2 3 3 3 3 2 2 3 2 2 3 2 2 3 4 4 2 1 1 2 2 2 2 2 2 2 2 3 3 3 3 3 3
2 1 1 1 1 1 1 2 2 2 2 2 2 3 2 2 2 2 2 3 3 3 2 3 4 4 4 1 1 1 1 2 2 2 2 2 2 2 3 3 3 3 3 3
2 2 2 2 2 2 2 1 1 1 1 1 2 2 2 2 2 2 1 2 3 3 2 3 4 4 2 1 1 2 2 2 2 2 2 2 2 3 3 3 3 3 3 3
2 2 2 3 2 2 1 1 1 1 1 1 2 1 1 1 1 1 1 1 2 3 2 2 2 3 1 1 2 2 2 2 3 2 2 2 3 3 3 3 3 3 3 3
2 1 1 1 1 2 2 2 2 2 2 1 2 1 1 1 1 1 1 1 1 2 2 2 2 2 2 2 2 2 2 2 2 2 2 2 3 3 3 3 3 3 3 3
Wind_Direction
266 275 266 262 256 242 232 235 242 262 269 276 283 276 281 309 324 311 328 343 326 320 323 324 324 327 327 317 306 297 284 266 257 267 264 262 258 256 257 255 248 235 236 243
268 255 258 266 257 241 239 243 250 266 271 274 280 310 296 285 287 268 270 275 289 294 300 306 309 318 318 311 307 301 287 274 271 266 259 260 259 254 254 253 243 240 240 241
260 263 286 264 236 219 224 225 229 245 258 296 297 281 276 271 263 268 273 276 275 278 286 295 297 300 295 293 295 288 280 279 276 277 271 266 266 259 255 253 243 244 243 239
272 298 249 244 186 191 218 238 231 249 276 283 277 277 272 254 242 268 282 284 286 289 297 297 297 300 293 287 282 280 281 281 282 286 280 271 265 261 261 263 252 250 251 247
232 255 269 252 204 183 213 256 226 233 261 277 309 308 281 254 231 252 272 279 278 282 290 294 292 290 285 279 277 277 279 284 284 278 273 267 262 258 262 262 259 255 255 252
228 247 252 254 172 139 140 272 238 213 243 268 309 281 270 308 322 315 309 295 293 303 300 290 279 272 265 267 268 268 276 284 287 281 269 263 262 265 263 259 257 258 261 256
230 243 263 235 155 132 179 256 251 203 232 242 237 242 269 305 306 300 296 290 292 288 280 273 268 261 258 267 268 280 288 285 281 276 270 264 262 261 260 261 258 259 260 260
204 225 250 173 146 188 225 249 254 254 249 257 263 277 288 293 291 292 289 283 285 283 282 274 251 244 257 265 276 292 290 285 281 275 271 270 263 261 258 255 254 258 261 266
205 221 242 182 206 226 195 249 269 277 294 290 281 281 284 283 281 284 283 281 284 278 282 280 254 233 250 266 282 290 286 283 283 281 271 266 261 258 255 248 249 257 259 266
255 256 249 232 236 234 232 245 260 261 273 270 268 271 278 281 280 282 283 283 286 283 279 280 269 251 249 262 269 272 276 280 279 279 277 272 261 252 250 246 247 252 255 260
251 265 280 251 241 248 254 258 265 266 260 256 260 270 272 277 278 278 283 281 270 266 268 272 269 260 253 248 249 258 266 271 272 271 270 270 264 252 249 244 244 252 254 253
236 231 226 252 245 238 242 250 249 257 269 264 252 261 269 271 271 272 275 277 274 272 274 276 270 266 258 239 234 245 262 268 266 267 266 263 269 277 266 264 270 271 271 271
240 261 257 265 264 243 242 248 249 246 250 262 264 256 258 266 266 264 266 268 265 267 270 272 269 268 266 250 236 239 251 263 266 266 266 266 266 272 285 292 284 281 277 279
236 244 263 253 256 255 248 252 255 262 259 253 259 263 260 262 265 263 263 264 266 268 267 263 263 267 267 251 235 243 250 263 267 263 266 268 270 272 274 282 292 290 285 284
232 224 233 245 245 248 244 243 255 260 263 265 260 259 257 259 262 264 264 266 268 265 263 264 266 272 269 249 237 241 247 251 255 262 267 271 274 278 278 281 285 291 297 294
235 238 235 236 241 245 245 243 246 253 257 260 261 261 259 258 262 266 264 257 259 263 267 269 270 274 272 262 260 246 246 266 269 263 266 273 272 273 278 281 284 287 287 288
214 232 233 241 242 245 248 250 248 250 253 255 257 260 260 265 272 272 273 268 257 262 264 264 272 279 274 268 263 257 249 262 273 270 260 264 266 268 271 277 280 282 282 286
224 228 224 227 235 240 246 248 250 252 253 253 253 250 246 249 259 267 274 279 286 285 276 265 265 275 270 264 257 255 248 246 245 245 254 262 269 267 269 270 275 279 283 288
230 228 227 231 231 227 233 241 248 252 254 245 240 243 244 246 254 264 266 265 275 282 285 272 291 290 271 268 271 251 256 259 263 265 263 270 277 273 269 270 275 278 282 288
225 227 225 235 233 223 230 239 240 248 249 228 224 237 249 254 253 254 249 254 257 262 266 279 279 267 265 273 283 265 264 261 263 267 270 267 269 273 274 276 278 282 286 287
221 224 221 224 233 230 221 218 219 239 248 214 215 235 250 259 250 240 248 272 278 274 279 285 278 264 261 273 279 271 265 268 266 264 266 264 269 275 280 285 289 293 292 292
217 219 222 215 214 235 235 212 210 220 235 239 238 241 251 264 262 255 245 251 273 288 289 275 270 274 280 285 270 262 265 270 270 270 272 273 273 276 282 287 291 295 295 296
215 214 216 210 208 224 230 206 209 215 227 235 235 236 241 251 247 251 277 275 277 289 293 275 279 287 291 291 275 270 277 280 278 277 278 280 283 283 282 285 287 290 293 295
212 204 203 191 158 165 215 235 223 226 230 240 238 236 239 260 273 256 258 291 288 283 278 283 288 290 293 299 279 280 284 286 287 289 289 291 290 288 288 290 290 290 288 288
192 186 178 173 190 218 224 207 195 222 230 251 258 251 238 230 253 282 288 287 293 298 299 295 295 299 305 296 273 270 273 272 277 284 284 287 290 292 292 288 286 286 289 289
191 198 205 208 209 205 192 188 217 231 226 264 286 277 257 248 255 277 287 288 289 300 308 302 294 293 288 276 274 277 278 288 295 297 293 289 290 290 290 289 288 289 292 294
182 184 188 212 214 195 188 197 216 235 231 231 270 277 259 251 251 270 285 297 299 299 299 296 288 277 276 276 277 281 279 278 279 283 288 289 290 291 289 288 292 295 298 297
Height
1489 1486 1486 1486 1485 1486 1487 1485 1485 1476 1473 1470 1470 1470 1470 1470 1470 1470 1469 1469 1468 1467 1466 1465 1464 1463 1462 1461 1460 1459 1458 1458 1458 1458 1459 1459 1460 1460 1460 1460 1460 1460 1460 1460
1490 1484 1483 1483 1481 1481 1482 1481 1479 1476 1473 1468 1467 1468 1468 1468 1468 1468 1467 1467 1466 1465 1464 1463 1462 1460 1459 1458 1457 1456 1455 1454 1455 1455 1455 1455 1455 1455 1456 1456 1456 1456 1456 1456
1487 1483 1482 1481 1473 1475 1475 1473 1474 1473 1469 1466 1466 1466 1466 1466 1466 1465 1465 1464 1463 1462 1461 1460 1458 1457 1455 1454 1454 1453 1452 1451 1451 1451 1451 1451 1451 1451 1451 1451 1451 1451 1451 1452
1488 1487 1487 1470 1465 1465 1468 1468 1467 1466 1465 1465 1464 1464 1464 1463 1463 1463 1462 1461 1460 1459 1458 1456 1455 1453 1452 1451 1450 1449 1448 1447 1447 1447 1447 1447 1447 1446 1446 1446 1446 1446 1447 1447
1488 1485 1474 1465 1464 1464 1466 1465 1461 1463 1462 1462 1462 1461 1461 1460 1460 1460 1459 1458 1457 1455 1454 1452 1450 1449 1448 1447 1446 1445 1444 1444 1443 1443 1442 1442 1442 1442 1442 1442 1442 1442 1442 1442
1485 1484 1476 1462 1461 1460 1465 1465 1458 1458 1459 1460 1460 1462 1459 1458 1458 1457 1456 1455 1453 1451 1449 1448 1446 1445 1444 1444 1443 1442 1441 1440 1440 1439 1439 1438 1438 1438 1438 1438 1437 1437 1437 1438
1483 1481 1469 1461 1459 1461 1468 1462 1456 1455 1456 1457 1457 1458 1456 1455 1454 1454 1452 1451 1449 1447 1446 1444 1443 1442 1441 1440 1439 1438 1438 1437 1436 1436 1435 1435 1434 1434 1434 1433 1433 1433 1433 1433
1479 1478 1469 1458 1458 1460 1458 1454 1454 1454 1454 1454 1454 1453 1452 1451 1451 1450 1448 1447 1445 1444 1442 1440 1439 1438 1437 1436 1436 1435 1434 1433 1432 1432 1431 1431 1430 1430 1430 1429 1429 1429 1428 1428
1465 1462 1454 1453 1452 1452 1452 1452 1452 1452 1451 1451 1450 1449 1449 1448 1447 1445 1444 1443 1441 1440 1438 1437 1436 1435 1434 1433 1432 1431 1430 1430 1429 1428 1428 1427 1427 1426 1426 1426 1425 1424 1424 1424
1458 1452 1449 1449 1449 1449 1450 1449 1449 1449 1448 1448 1447 1446 1445 1444 1443 1442 1440 1439 1437 1436 1434 1433 1433 1432 1431 1430 1429 1428 1427 1426 1425 1425 1424 1424 1423 1423 1422 1422 1421 1421 1420 1420
1454 1449 1447 1446 1445 1446 1446 1446 1445 1445 1445 1444 1443 1442 1441 1440 1439 1437 1436 1435 1434 1432 1431 1430 1429 1428 1427 1426 1425 1424 1423 1422 1422 1421 1421 1420 1420 1419 1419 1419 1418 1417 1416 1416
1447 1443 1444 1441 1441 1442 1442 1441 1441 1441 1440 1440 1440 1438 1437 1436 1435 1434 1432 1431 1430 1428 1427 1426 1425 1424 1423 1422 1421 1420 1420 1419 1418 1417 1417 1416 1416 1416 1415 1415 1415 1414 1413 1413
1439 1438 1438 1437 1437 1438 1438 1437 1437 1437 1436 1436 1435 1435 1433 1432 1431 1430 1428 1427 1426 1425 1423 1422 1421 1420 1419 1418 1418 1417 1416 1415 1415 1414 1413 1413 1412 1411 1410 1411 1411 1410 1409 1409
1434 1435 1434 1433 1433 1433 1433 1433 1433 1432 1432 1432 1431 1430 1429 1428 1427 1426 1425 1424 1423 1421 1420 1419 1417 1416 1416 1415 1414 1414 1413 1412 1411 1411 1410 1409 1409 1408 1407 1406 1405 1405 1405 1405
1430 1430 1430 1429 1429 1429 1429 1429 1429 1428 1428 1427 1427 1426 1425 1424 1423 1422 1421 1420 1419 1418 1417 1415 1414 1413 1412 1411 1411 1410 1410 1409 1408 1407 1407 1406 1406 1405 1404 1403 1402 1401 1401 1401
1425 1425 1425 1425 1425 1425 1425 1425 1424 1423 1423 1423 1422 1422 1421 1420 1419 1419 1418 1417 1416 1414 1413 1412 1411 1410 1409 1408 1407 1407 1406 1406 1405 1404 1403 1403 1402 1402 1401 1400 1399 1398 1397 1396
1420 1420 1420 1420 1420 1421 1421 1420 1420 1419 1419 1418 1418 1418 1417 1417 1416 1415 1414 1413 1413 1412 1410 1409 1408 1407 1406 1405 1404 1404 1403 1402 1402 1401 1400 1400 1399 1398 1398 1397 1396 1395 1394 1393
1415 1415 1416 1416 1416 1416 1416 1416 1416 1415 1415 1414 1414 1414 1413 1413 1412 1411 1411 1410 1409 1408 1407 1406 1405 1404 1403 1402 1401 1400 1400 1400 1399 1398 1398 1397 1396 1396 1395 1394 1393 1392 1391 1390
1410 1411 1411 1412 1412 1412 1412 1412 1412 1411 1411 1410 1410 1410 1410 1409 1409 1408 1408 1407 1406 1404 1404 1403 1402 1401 1400 1399 1398 1397 1397 1396 1396 1396 1395 1394 1394 1393 1392 1391 1390 1389 1387 1386
1406 1407 1407 1408 1408 1408 1408 1408 1408 1408 1408 1407 1407 1407 1406 1406 1406 1405 1404 1404 1403 1402 1401 1400 1399 1398 1397 1397 1396 1395 1394 1393 1393 1392 1392 1391 1391 1390 1389 1388 1387 1386 1384 1383
1403 1403 1404 1404 1404 1405 1405 1405 1405 1405 1405 1405 1404 1404 1403 1403 1403 1402 1401 1401 1400 1400 1399 1398 1397 1396 1395 1394 1393 1392 1392 1391 1390 1390 1389 1389 1388 1387 1386 1385 1384 1383 1381 1380
1400 1400 1401 1401 1401 1402 1402 1402 1402 1402 1402 1402 1402 1401 1401 1401 1400 1400 1399 1399 1398 1397 1396 1395 1394 1393 1392 1391 1390 1390 1389 1388 1388 1387 1387 1386 1385 1384 1383 1382 1381 1380 1379 1378
1398 1398 1398 1399 1399 1399 1399 1399 1400 1399 1399 1399 1399 1399 1398 1398 1398 1397 1396 1396 1395 1395 1394 1393 1392 1391 1390 1389 1388 1387 1386 1386 1385 1385 1384 1383 1382 1382 1381 1380 1379 1378 1377 1376
1395 1396 1396 1396 1397 1397 1396 1397 1397 1397 1397 1397 1397 1396 1396 1396 1395 1395 1394 1394 1393 1392 1391 1390 1390 1389 1388 1386 1385 1385 1384 1383 1383 1382 1381 1381 1380 1379 1378 1377 1376 1375 1374 1373
1393 1394 1394 1394 1394 1394 1395 1394 1394 1394 1394 1394 1394 1394 1394 1394 1393 1393 1392 1391 1390 1389 1388 1388 1387 1386 1385 1384 1383 1382 1382 1381 1381 1380 1379 1378 1377 1376 1376 1375 1374 1373 1372 1371
1392 1392 1392 1392 1393 1393 1392 1392 1392 1392 1392 1392 1392 1392 1392 1391 1391 1390 1390 1389 1388 1387 1386 1385 1384 1383 1382 1381 1380 1380 1379 1379 1378 1377 1377 1376 1375 1374 1373 1372 1371 1371 1370 1369
1390 1390 1390 1390 1390 1390 1390 1390 1390 1390 1391 1390 1390 1390 1390 1389 1389 1388 1387 1386 1385 1384 1383 1382 1381 1380 1379 1379 1378 1377 1376 1376 1375 1375 1374 1373 1372 1371 1371 1370 1369 1368 1367 1366